Regional Weather Roundup
Issued by NWS

Home | Current Version | Previous Version | Graphics & Text | Print | Product List | Glossary On
Versions: 1 2 3 4 5 6 7 8 9 10 11 12 13 14 15 16 17 18 19 20 21 22 23 24 25 26 27
000
ASUS45 KSLC 262110
RWRUT

UTAH REGIONAL WEATHER ROUNDUP
NATIONAL WEATHER SERVICE SALT LAKE CITY UT
300 PM MDT MON SEP 26 2016

UTZ001>011-023>025-262200-

NORTHERN UTAH

CITY           SKY/WX    TMP DP  RH WIND       PRES   REMARKS
BRIGHAM CITY     N/A     71  43  36 SW3       30.34F
DUGWAY         MOSUNNY   68  46  44 N5        30.36F
HILL AFB       SUNNY     68  46  44 VRB1      30.35F
LOGAN          SUNNY     69  43  38 N6        30.34F
OGDEN          SUNNY     70  47  43 N6        30.33F
PROVO AIRPORT  SUNNY     66  43  42 VRB6      30.35F
SALT LAKE CITY MOSUNNY   71  45  39 NW9       30.33F
VERNAL         SUNNY     64  42  44 CALM      30.38F
WENDOVER       SUNNY     70  43  37 S7        30.36F
HEBER CITY     SUNNY     73  32  21 CALM      30.34F
WEST JORDAN    SUNNY     69  47  45 N5        30.35F

$$

UTZ012>022-026-027-262200-

SOUTHERN/CENTRAL UTAH

CITY           SKY/WX    TMP DP  RH WIND       PRES   REMARKS
BLANDING       SUNNY     72  33  24 S3        30.43F
BRYCE CANYON   SUNNY     64  31  28 VRB6      30.46F
CEDAR CITY     SUNNY     73  32  22 MISG      30.34F
DELTA          SUNNY     72  36  26 NW7       30.34F
MILFORD        SUNNY     74  35  24 NE7       30.32F
MOAB/CYNLANDS  SUNNY     75  34  22 NE5       30.30F
PRICE          SUNNY     69  35  28 VRB5      30.38F
ST GEORGE      CLEAR     86  37  17 CALM      30.19F

$$

REGIONAL REPORTS     COLORADO/ARIZONA

CITY           SKY/WX    TMP DP  RH WIND       PRES   REMARKS
CRAIG, CO      SUNNY     71  30  21 W7        30.40F
GRAND JUNCTION SUNNY     74  37  26 W10       30.32F
RIFLE          SUNNY     72  32  23 NW5       30.35F
MONTROSE       SUNNY     70  36  28 NW5       30.37F
CORTEZ         SUNNY     73  36  25 SW6       30.35F
PAGE, AZ       SUNNY     76  32  20 NW3       30.28F
GRAND CANYON   SUNNY     70  35  27 NE13G22   30.40F
KINGMAN        MOSUNNY   88  33  14 VRB7      30.15F
FLAGSTAFF      SUNNY     67  29  24 NE20G28   30.36F

$$

REGIONAL REPORTS    NEVADA/IDAHO/WYOMING

CITY           SKY/WX    TMP DP  RH WIND       PRES   REMARKS
LAS VEGAS, NV  SUNNY     89  28  11 NE12G20   30.11F
ELY            SUNNY     72  33  24 N7        30.38F
ELKO           SUNNY     78  34  20 NW6       30.30F
POCATELLO, ID  SUNNY     73  41  31 N6        30.35F
BURLEY         SUNNY     74  45  35 NE10      30.30F
EVANSTON, WY   SUNNY     66  36  32 VRB7      30.44F
ROCK SPRINGS   SUNNY     64  37  36 VRB6      30.43F

$$




USA.gov is the U.S. government's official web portal to all federal, state and local government web resources and services.